(326474) = 2002 AY168 = 2007 EE105

Discovered at Socorro on 2002-01-15 by LINEAR.

Orbit

Orbit type: Main Belt

Note: WebGL enabled browser required.

epoch2023-09-13.0
epoch JD2460200.5
perihelion date2020-04-22.32944
perihelion JD2458961.82944
argument of perihelion (°)326.44990
ascending node (°)129.31426
inclination (°)8.80477
eccentricity0.1885372
perihelion distance (AU)2.2418616
Tisserand w.r.t. Jupiter3.3
ΔV w.r.t. Earth (km/sec)9.8
semimajor axis (AU)2.7627412
mean anomaly (°)265.85777
mean daily motion (°/day)0.21463150
aphelion distance (AU)3.284
period (years)4.59
P-vector [x]-0.10547278
P-vector [y]0.94270734
P-vector [z]0.31650966
Q-vector [x]-0.98734531
Q-vector [y]-0.13718077
Q-vector [z]0.07956557
absolute magnitude16.67
phase slope0.15
uncertainty0
referenceMPO 779325
observations used327
oppositions11
arc length (days)7947
first opposition used2002
last opposition used2023
residual rms (arc-secs)0.74
perturbers coarse indicatorM-v
perturbers precise indicator003Ek
first observation date used2002-01-08.0
last observation date used2023-10-12.0
computer nameMPCLINUX
JD of orbit computation2456966.721692
perihelion JD uncertainty (days)1.7434E-04
argument of perihelion uncertainty (°)6.0121E-05
ascending node uncertainty (°)4.9139E-05
inclination uncertainty (°)6.4805E-06
eccentricity uncertainty 5.1387E-08
perihelion distance uncertainty (AU)1.6150E-07
Minimum Orbit Intersection Distances (in AU)
for orbit epoch: 2460200.5, reference: E2023-TL0
Mercury1.93599
Venus1.5282
Earth1.26318
Mars0.64782
Jupiter1.90471
Saturn6.77995
Uranus15.7794
Neptune27.0035

Observations

337 total observations over interval: 1996 11 13.87326 – 2023 10 12.340001
These data are available for download (format description).

Date (UT) J2000 RA J2000 Dec Magn Location Ref
1996 11 13.87326 02 43 22.89 +00 20 58.5 19.5 V 599 – Campo Imperatore-CINEOS MPS 385769
1996 11 13.88681 02 43 22.46 +00 20 55.1   599 – Campo Imperatore-CINEOS MPS 385769
2002 01 08.26039 07 14 05.54 +16 27 43.5 20.1   644 – Palomar Mountain/NEAT MPS 59874
2002 01 08.28150 07 14 04.32 +16 27 51.4 19.2   644 – Palomar Mountain/NEAT MPS 59874
2002 01 08.30839 07 14 02.77 +16 28 02.5 20.3   644 – Palomar Mountain/NEAT MPS 59874
2002 01 15.24533 07 07 46.56 +17 14 59.5 19.1   704 – Lincoln Laboratory ETS, New Mexico MPS 47522
2002 01 15.27568 07 07 44.86 +17 15 10.5 19.3   704 – Lincoln Laboratory ETS, New Mexico MPS 47522
2002 01 15.29086 07 07 44.01 +17 15 16.9 19.2   704 – Lincoln Laboratory ETS, New Mexico MPS 47522
2002 01 15.30605 07 07 43.15 +17 15 23.1 19.3   704 – Lincoln Laboratory ETS, New Mexico MPS 47522
2002 01 19.25251 07 04 20.97 +17 42 39.7 19.6   704 – Lincoln Laboratory ETS, New Mexico MPS 47522
2002 01 19.26763 07 04 20.13 +17 42 44.7 19.3   704 – Lincoln Laboratory ETS, New Mexico MPS 47522
2002 01 19.28277 07 04 19.40 +17 42 52.3 19.1   704 – Lincoln Laboratory ETS, New Mexico MPS 47522
2002 01 19.29789 07 04 18.55 +17 42 57.0 19.2   704 – Lincoln Laboratory ETS, New Mexico MPS 47522
2007 02 23.29857 11 40 41.76 +11 04 28.5 20.4 V 691 – Steward Observatory, Kitt Peak-Spacewatch MPS 204516
2007 02 23.31621 11 40 41.00 +11 04 38.0 20.2 V 691 – Steward Observatory, Kitt Peak-Spacewatch MPS 204516
2007 02 23.33384 11 40 40.26 +11 04 47.6 20.2 V 691 – Steward Observatory, Kitt Peak-Spacewatch MPS 204516
2007 03 11.35401 11 28 25.77 +13 22 35.5 19.3 R 699 – Lowell Observatory-LONEOS MPS 204733
2007 03 11.37798 11 28 24.67 +13 22 45.1   699 – Lowell Observatory-LONEOS MPS 204733
2007 03 11.40192 11 28 23.41 +13 22 56.4   699 – Lowell Observatory-LONEOS MPS 204733
2007 03 11.42582 11 28 22.25 +13 23 07.8   699 – Lowell Observatory-LONEOS MPS 204733
2007 03 15.29955 11 25 16.14 +13 52 33.4 20.1 V 703 – Catalina Sky Survey MPS 204733
2007 03 15.30671 11 25 15.92 +13 52 35.5 19.9 V 703 – Catalina Sky Survey MPS 204733
2007 03 15.31382 11 25 15.42 +13 52 39.8 20.3 V 703 – Catalina Sky Survey MPS 204733
2007 03 15.32098 11 25 15.09 +13 52 42.5 19.8 V 703 – Catalina Sky Survey MPS 204733
2007 03 20.24932 11 21 25.34 +14 26 25.9 19.3 V G96 – Mt. Lemmon Survey MPS 204516
2007 03 20.25567 11 21 25.02 +14 26 28.2 19.2 V G96 – Mt. Lemmon Survey MPS 204516
2007 03 20.26198 11 21 24.73 +14 26 30.8 19.4 V G96 – Mt. Lemmon Survey MPS 204516
2007 03 20.26835 11 21 24.44 +14 26 33.1 19.5 V G96 – Mt. Lemmon Survey MPS 204516
2010 11 28.38587 05 09 52.70 +10 00 58.7 19.1 V 703 – Catalina Sky Survey MPS 366925
2010 11 28.39281 05 09 52.23 +10 00 59.7 19.2 V 703 – Catalina Sky Survey MPS 366925
2010 11 28.39979 05 09 51.87 +10 01 00.3 19.7 V 703 – Catalina Sky Survey MPS 366925
2010 11 28.40676 05 09 51.37 +10 01 00.1 19.5 V 703 – Catalina Sky Survey MPS 366925
2010 12 04.30523 05 04 35.90 +10 03 44.1 19.1 V 703 – Catalina Sky Survey MPS 358739
2010 12 04.31286 05 04 35.47 +10 03 44.4 19.3 V 703 – Catalina Sky Survey MPS 358739
2010 12 04.32045 05 04 35.04 +10 03 43.9 19.5 V 703 – Catalina Sky Survey MPS 358739
2010 12 04.32801 05 04 34.57 +10 03 44.2 19.6 V 703 – Catalina Sky Survey MPS 358739
2010 12 08.35581 05 00 49.21 +10 08 35.4 19.3 V 703 – Catalina Sky Survey MPS 358739
2010 12 08.36162 05 00 48.99 +10 08 35.7 19.1 V 703 – Catalina Sky Survey MPS 358739
2010 12 08.36745 05 00 48.67 +10 08 36.3 19.0 V 703 – Catalina Sky Survey MPS 358739
2010 12 08.37325 05 00 48.31 +10 08 37.4 19.0 V 703 – Catalina Sky Survey MPS 358739
2010 12 11.22177 04 58 08.34 +10 13 30.4 19.7   704 – Lincoln Laboratory ETS, New Mexico MPS 358739
2010 12 11.23514 04 58 07.61 +10 13 32.3 19.8   704 – Lincoln Laboratory ETS, New Mexico MPS 358739
2010 12 11.24829 04 58 06.86 +10 13 34.0 19.6   704 – Lincoln Laboratory ETS, New Mexico MPS 358739
2011 01 03.06482 04 40 10.42 +11 35 48.2 19.2 R H15 – ISON-NM Observatory, Mayhill MPS 363320
2011 01 03.07819 04 40 09.95 +11 35 52.1 19.2 R H15 – ISON-NM Observatory, Mayhill MPS 363320
2011 01 03.09155 04 40 09.49 +11 35 56.0 19.1 R H15 – ISON-NM Observatory, Mayhill MPS 363320
2011 01 03.10502 04 40 09.02 +11 35 59.9 19.2 R H15 – ISON-NM Observatory, Mayhill MPS 363320
2012 04 15.52113 14 09 33.633 +00 58 27.10 20.2 i F51 – Pan-STARRS 1, Haleakala MPS 420793
2012 04 15.52334 14 09 33.512 +00 58 27.81 20.3 i F51 – Pan-STARRS 1, Haleakala MPS 420793
2012 04 15.53333 14 09 32.992 +00 58 30.81 20.3 i F51 – Pan-STARRS 1, Haleakala MPS 420793
2012 04 15.53553 14 09 32.885 +00 58 31.67 20.3 i F51 – Pan-STARRS 1, Haleakala MPS 420793
2012 04 27.48750 13 59 41.454 +01 53 45.58 20.3 r F51 – Pan-STARRS 1, Haleakala MPS 422808
2012 04 27.49784 13 59 40.928 +01 53 47.87 20.6 r F51 – Pan-STARRS 1, Haleakala MPS 422808
2012 04 27.51022 13 59 40.312 +01 53 50.83 20.6 i F51 – Pan-STARRS 1, Haleakala MPS 422808
2012 04 27.52156 13 59 39.736 +01 53 53.41 20.7 i F51 – Pan-STARRS 1, Haleakala MPS 422808
2012 05 23.23137 13 42 55.94 +02 34 53.7 21.1 V G96 – Mt. Lemmon Survey MPS 425967
2012 05 23.23796 13 42 55.80 +02 34 52.3 20.4 V G96 – Mt. Lemmon Survey MPS 425967
2012 05 23.24463 13 42 55.58 +02 34 53.2 21.2 V G96 – Mt. Lemmon Survey MPS 425967
2012 05 23.25122 13 42 55.33 +02 34 53.5 21.0 V G96 – Mt. Lemmon Survey MPS 425967
2014 07 31.54412 00 21 42.524 -05 16 41.74 21.3 w F51 – Pan-STARRS 1, Haleakala MPS 525378
2014 07 31.58006 00 21 42.718 -05 16 50.02 21.4 w F51 – Pan-STARRS 1, Haleakala MPS 525378
2014 08 20.52588 00 19 36.533 -07 02 12.15 20.5 i F51 – Pan-STARRS 1, Haleakala MPS 527956
2014 08 20.53812 00 19 36.276 -07 02 17.03 20.8 i F51 – Pan-STARRS 1, Haleakala MPS 527956
2014 08 20.55035 00 19 36.021 -07 02 21.95 20.8 i F51 – Pan-STARRS 1, Haleakala MPS 527956
2014 08 20.56259 00 19 35.736 -07 02 26.82 20.8 i F51 – Pan-STARRS 1, Haleakala MPS 527956
2014 08 23.54121 00 18 30.975 -07 22 50.97 20.8 w F51 – Pan-STARRS 1, Haleakala MPS 529596
2014 08 23.55396 00 18 30.649 -07 22 56.35 20.8 w F51 – Pan-STARRS 1, Haleakala MPS 529596
2014 08 23.56667 00 18 30.329 -07 23 01.63 20.6 w F51 – Pan-STARRS 1, Haleakala MPS 529596
2014 08 23.57940 00 18 30.007 -07 23 07.13 20.9 w F51 – Pan-STARRS 1, Haleakala MPS 529596
2014 09 02.44454 00 13 36.684 -08 36 40.40 20.5 w F51 – Pan-STARRS 1, Haleakala MPS 531344
2014 09 02.45513 00 13 36.288 -08 36 45.32 20.6 w F51 – Pan-STARRS 1, Haleakala MPS 531344
2014 09 02.46572 00 13 35.895 -08 36 50.24 20.6 w F51 – Pan-STARRS 1, Haleakala MPS 531344
2014 09 02.47632 00 13 35.504 -08 36 55.26 20.7 w F51 – Pan-STARRS 1, Haleakala MPS 531344
2014 09 19.38112 00 01 40.341 -10 49 36.06 20.4 w F51 – Pan-STARRS 1, Haleakala MPS 536328
2014 09 19.39111 00 01 39.848 -10 49 40.58 20.3 w F51 – Pan-STARRS 1, Haleakala MPS 536328
2014 09 19.40109 00 01 39.364 -10 49 45.09 20.3 w F51 – Pan-STARRS 1, Haleakala MPS 536328
2014 09 19.41106 00 01 38.875 -10 49 49.74 20.2 w F51 – Pan-STARRS 1, Haleakala MPS 536328
2014 09 23.37821 23 58 30.252 -11 19 00.26 20.4 w F51 – Pan-STARRS 1, Haleakala MPS 536328
2014 09 23.38817 23 58 29.742 -11 19 04.64 20.3 w F51 – Pan-STARRS 1, Haleakala MPS 536328
2014 09 23.39810 23 58 29.271 -11 19 08.99 20.4 w F51 – Pan-STARRS 1, Haleakala MPS 536328
2014 09 23.40805 23 58 28.770 -11 19 13.36 20.4 w F51 – Pan-STARRS 1, Haleakala MPS 536328
2014 10 27.31485 23 36 51.479 -13 43 07.79 20.9 w F51 – Pan-STARRS 1, Haleakala MPS 544118
2014 10 27.32671 23 36 51.205 -13 43 08.06 20.8 w F51 – Pan-STARRS 1, Haleakala MPS 544118
2014 10 27.33855 23 36 50.934 -13 43 08.56 20.9 w F51 – Pan-STARRS 1, Haleakala MPS 544118
2014 11 22.21018 23 36 21.699 -12 56 31.70 21.4 w F51 – Pan-STARRS 1, Haleakala MPS 549473
2014 11 22.22078 23 36 21.871 -12 56 28.86 21.1 w F51 – Pan-STARRS 1, Haleakala MPS 549473
2014 11 22.23140 23 36 22.042 -12 56 26.32 21.5 w F51 – Pan-STARRS 1, Haleakala MPS 549473
2015 10 15.58229 08 43 56.620 +14 25 07.89 21.7 w F51 – Pan-STARRS 1, Haleakala MPS 635285
2015 10 15.58617 08 43 57.019 +14 25 06.68 21.4 w F51 – Pan-STARRS 1, Haleakala MPS 635285
2015 10 15.59005 08 43 57.375 +14 25 05.79 21.2 w F51 – Pan-STARRS 1, Haleakala MPS 635285
